Location: Eaton Estates
(41.3089°N, 82.0057°W)
Time: 23:26:01
(UTC+00:00)

AAUSAT CUBESAT 2 - Visible Passes

Search period start: 22 March 2023 00:00
Search period end: 01 April 2023 00:00
Orbit: 558 x 564 km, 97.6° (Epoch: 22 March)

Date Brightness Start Highest point End Pass type
(mag) Time Alt. Az. Time Alt. Az. Time Alt. Az.
22 Mar ? 10:09:22 10° N 10:13:24 77° WNW 10:17:25 10° SSW visible
23 Mar ? 10:08:32 10° N 10:12:35 79° WNW 10:16:36 10° SSW visible
24 Mar ? 10:07:41 10° N 10:11:45 81° WNW 10:15:45 10° SSW visible
25 Mar ? 10:06:49 10° N 10:10:52 83° WNW 10:14:52 10° SSW visible
26 Mar ? 10:05:54 10° N 10:09:57 85° WNW 10:13:58 10° SSW visible
27 Mar ? 10:04:57 10° NNE 10:09:01 87° WNW 10:13:01 10° SSW visible
28 Mar ? 10:04:00 10° NNE 10:08:03 89° W 10:12:04 10° SSW visible
29 Mar ? 10:03:00 10° NNE 10:07:03 89° ESE 10:11:04 10° SSW visible
30 Mar ? 10:01:59 10° NNE 10:06:01 87° E 10:10:02 10° SSW visible
31 Mar ? 10:00:55 10° NNE 10:04:58 85° ESE 10:08:59 10° SSW visible
